Previsão horária em Çerkeş

Hoje, 31 Julho, Sábado

Tempo Temperatura Precipitação Vento Pressão Humidade
00:00 +18°C° 0 mm 1 m/s 664 mmHg 62%
01:00 +18°C° 0 mm 1 m/s 664 mmHg 62%
02:00 +16°C° 0 mm 1 m/s 664 mmHg 63%
03:00 +16°C° 0 mm 1 m/s 664 mmHg 63%
04:00 +16°C° 0 mm 1 m/s 663 mmHg 62%
05:00 +16°C° 0 mm 1 m/s 663 mmHg 61%
06:00 +20°C° 0 mm 1 m/s 664 mmHg 53%
07:00 +22°C° 0 mm 1 m/s 665 mmHg 46%
08:00 +25°C° 0 mm 2 m/s 665 mmHg 39%
09:00 +26°C° 0 mm 3 m/s 665 mmHg 36%
10:00 +28°C° 0 mm 4 m/s 665 mmHg 33%
11:00 +29°C° 0 mm 5 m/s 666 mmHg 30%
12:00 +29°C° 0 mm 5 m/s 665 mmHg 29%
13:00 +30°C° 0 mm 5 m/s 665 mmHg 28%
14:00 +30°C° 0 mm 5 m/s 665 mmHg 27%
15:00 +30°C° 0 mm 5 m/s 665 mmHg 28%
16:00 +29°C° 0 mm 5 m/s 665 mmHg 29%
17:00 +28°C° 0 mm 6 m/s 665 mmHg 30%
18:00 +26°C° 0 mm 4 m/s 665 mmHg 38%
19:00 +22°C° 0 mm 3 m/s 664 mmHg 45%
20:00 +20°C° 0 mm 1 m/s 664 mmHg 52%
21:00 +19°C° 0 mm 1 m/s 664 mmHg 55%
22:00 +19°C° 0 mm 1 m/s 664 mmHg 57%
23:00 +18°C° 0 mm 1 m/s 664 mmHg 60%

Amanhã, 1 Agosto, Domingo

Tempo Temperatura Precipitação Vento Pressão Humidade
00:00 +16°C° 0 mm 1 m/s 664 mmHg 60%
01:00 +16°C° 0 mm 1 m/s 664 mmHg 61%
02:00 +15°C° 0 mm 1 m/s 663 mmHg 62%
03:00 +15°C° 0 mm 1 m/s 663 mmHg 61%
04:00 +15°C° 0 mm 1 m/s 663 mmHg 60%
05:00 +15°C° 0 mm 1 m/s 663 mmHg 59%
06:00 +18°C° 0 mm 1 m/s 664 mmHg 51%
07:00 +21°C° 0 mm 1 m/s 665 mmHg 42%
08:00 +24°C° 0 mm 1 m/s 665 mmHg 34%
09:00 +25°C° 0 mm 2 m/s 666 mmHg 30%
10:00 +27°C° 0 mm 2 m/s 666 mmHg 26%
11:00 +28°C° 0 mm 3 m/s 666 mmHg 22%
12:00 +29°C° 0 mm 3 m/s 666 mmHg 22%
13:00 +30°C° 0 mm 3 m/s 666 mmHg 21%
14:00 +30°C° 0 mm 4 m/s 666 mmHg 21%
15:00 +30°C° 0 mm 4 m/s 666 mmHg 24%
16:00 +29°C° 0 mm 5 m/s 665 mmHg 26%
17:00 +29°C° 0 mm 5 m/s 665 mmHg 29%
18:00 +26°C° 0 mm 4 m/s 665 mmHg 39%
19:00 +22°C° 0 mm 3 m/s 665 mmHg 49%
20:00 +19°C° 0 mm 2 m/s 665 mmHg 59%
21:00 +20°C° 0 mm 1 m/s 664 mmHg 62%
22:00 +19°C° 0 mm 1 m/s 664 mmHg 65%
23:00 +18°C° 0 mm 1 m/s 664 mmHg 69%

Depois de amanhã, 2 Agosto, Segunda-feira

Tempo Temperatura Precipitação Vento Pressão Humidade
00:00 +18°C° 0 mm 1 m/s 664 mmHg 70%
01:00 +16°C° 0 mm 1 m/s 664 mmHg 72%
02:00 +15°C° 0 mm 0 m/s 664 mmHg 74%
03:00 +16°C° 0 mm 1 m/s 664 mmHg 75%
04:00 +15°C° 0 mm 1 m/s 664 mmHg 76%
05:00 +15°C° 0 mm 1 m/s 664 mmHg 77%
06:00 +19°C° 0 mm 1 m/s 665 mmHg 67%
07:00 +21°C° 0 mm 1 m/s 665 mmHg 56%
08:00 +24°C° 0 mm 1 m/s 666 mmHg 46%
09:00 +26°C° 0 mm 1 m/s 666 mmHg 38%
10:00 +27°C° 0 mm 2 m/s 666 mmHg 31%
11:00 +29°C° 0 mm 2 m/s 667 mmHg 23%
12:00 +30°C° 0 mm 3 m/s 666 mmHg 21%
13:00 +31°C° 0 mm 3 m/s 666 mmHg 19%
14:00 +33°C° 0 mm 3 m/s 666 mmHg 18%
15:00 +31°C° 0 mm 3 m/s 666 mmHg 19%
16:00 +31°C° 0 mm 3 m/s 666 mmHg 20%
17:00 +32°C° 0 mm 4 m/s 666 mmHg 21%
18:00 +28°C° 0 mm 3 m/s 665 mmHg 30%
19:00 +25°C° 0 mm 2 m/s 665 mmHg 39%
20:00 +22°C° 0 mm 1 m/s 665 mmHg 48%
21:00 +21°C° 0 mm 1 m/s 665 mmHg 51%
22:00 +20°C° 0 mm 1 m/s 665 mmHg 55%
23:00 +20°C° 0 mm 1 m/s 665 mmHg 59%

3 Agosto, Terça-feira

Tempo Temperatura Precipitação Vento Pressão Humidade
00:00 +19°C° 0 mm 1 m/s 665 mmHg 61%
01:00 +19°C° 0 mm 1 m/s 665 mmHg 63%
02:00 +19°C° 0 mm 1 m/s 665 mmHg 64%
03:00 +19°C° 0 mm 1 m/s 665 mmHg 64%
04:00 +18°C° 0 mm 1 m/s 665 mmHg 64%
05:00 +18°C° 0 mm 1 m/s 665 mmHg 64%
06:00 +21°C° 0 mm 1 m/s 665 mmHg 54%
07:00 +24°C° 0 mm 1 m/s 666 mmHg 44%
08:00 +27°C° 0 mm 1 m/s 667 mmHg 34%
09:00 +29°C° 0 mm 2 m/s 667 mmHg 29%
10:00 +31°C° 0 mm 3 m/s 667 mmHg 23%
11:00 +33°C° 0 mm 3 m/s 668 mmHg 18%
12:00 +34°C° 0 mm 4 m/s 667 mmHg 18%
13:00 +35°C° 0 mm 4 m/s 667 mmHg 17%
14:00 +35°C° 0 mm 5 m/s 667 mmHg 17%
15:00 +35°C° 0 mm 5 m/s 667 mmHg 19%
16:00 +34°C° 0 mm 6 m/s 667 mmHg 20%
17:00 +34°C° 0 mm 6 m/s 667 mmHg 22%
18:00 +30°C° 0 mm 5 m/s 667 mmHg 28%
19:00 +27°C° 0 mm 3 m/s 667 mmHg 34%
20:00 +24°C° 0 mm 2 m/s 666 mmHg 40%
21:00 +23°C° 0 mm 2 m/s 667 mmHg 42%
22:00 +21°C° 0 mm 2 m/s 667 mmHg 44%
23:00 +22°C° 0 mm 1 m/s 667 mmHg 45%

4 Agosto, Quarta-feira

Tempo Temperatura Precipitação Vento Pressão Humidade
00:00 +21°C° 0 mm 1 m/s 667 mmHg 46%
01:00 +21°C° 0 mm 1 m/s 667 mmHg 47%
02:00 +20°C° 0 mm 1 m/s 666 mmHg 48%
03:00 +20°C° 0 mm 1 m/s 666 mmHg 48%
04:00 +19°C° 0 mm 1 m/s 666 mmHg 48%
05:00 +19°C° 0 mm 1 m/s 666 mmHg 48%
06:00 +22°C° 0 mm 1 m/s 667 mmHg 42%
07:00 +25°C° 0 mm 1 m/s 667 mmHg 36%
08:00 +27°C° 0 mm 1 m/s 668 mmHg 30%
09:00 +29°C° 0 mm 1 m/s 668 mmHg 27%
10:00 +31°C° 0 mm 2 m/s 668 mmHg 24%
11:00 +32°C° 0 mm 2 m/s 668 mmHg 21%
12:00 +34°C° 0 mm 2 m/s 668 mmHg 20%
13:00 +35°C° 0 mm 3 m/s 668 mmHg 19%
14:00 +35°C° 0 mm 3 m/s 668 mmHg 17%
15:00 +35°C° 0 mm 3 m/s 667 mmHg 19%
16:00 +34°C° 0 mm 4 m/s 667 mmHg 20%
17:00 +34°C° 0 mm 4 m/s 667 mmHg 21%
18:00 +29°C° 0 mm 3 m/s 667 mmHg 31%
19:00 +26°C° 0 mm 2 m/s 666 mmHg 41%
20:00 +23°C° 0 mm 1 m/s 666 mmHg 51%
21:00 +23°C° 0 mm 1 m/s 666 mmHg 54%
22:00 +22°C° 0 mm 1 m/s 666 mmHg 57%
23:00 +22°C° 0 mm 1 m/s 666 mmHg 60%

5 Agosto, Quinta-feira

Tempo Temperatura Precipitação Vento Pressão Humidade
00:00 +21°C° 0 mm 1 m/s 666 mmHg 62%
01:00 +21°C° 0 mm 1 m/s 665 mmHg 63%
02:00 +20°C° 0 mm 1 m/s 665 mmHg 65%
03:00 +20°C° 0 mm 1 m/s 665 mmHg 65%
04:00 +20°C° 0 mm 1 m/s 665 mmHg 64%
05:00 +20°C° 0 mm 1 m/s 665 mmHg 64%
06:00 +23°C° 0 mm 1 m/s 665 mmHg 55%
07:00 +26°C° 0 mm 1 m/s 666 mmHg 46%
08:00 +27°C° 0 mm 0 m/s 666 mmHg 36%
09:00 +30°C° 0 mm 1 m/s 666 mmHg 30%
10:00 +32°C° 0 mm 1 m/s 666 mmHg 25%
11:00 +34°C° 0 mm 1 m/s 666 mmHg 19%
12:00 +36°C° 0 mm 2 m/s 666 mmHg 17%
13:00 +37°C° 0 mm 2 m/s 666 mmHg 15%
14:00 +37°C° 0 mm 3 m/s 666 mmHg 14%
15:00 +37°C° 0 mm 3 m/s 665 mmHg 15%
16:00 +36°C° 0 mm 3 m/s 665 mmHg 16%
17:00 +36°C° 0 mm 4 m/s 664 mmHg 16%
18:00 +33°C° 0 mm 3 m/s 664 mmHg 24%
19:00 +29°C° 0 mm 2 m/s 664 mmHg 31%
20:00 +25°C° 0 mm 1 m/s 663 mmHg 38%
21:00 +25°C° 0 mm 1 m/s 663 mmHg 40%
22:00 +24°C° 0 mm 1 m/s 663 mmHg 42%
23:00 +24°C° 0 mm 1 m/s 663 mmHg 43%
Mostrar mais

Necessitamos do seu Consentimento

A Meteoprog e os seus Fornecedores de Serviços podem armazenar e aceder a dados pessoais como cookies, identificadores do dispositivo ou outras tecnologias semelhantes existentes no seu dispositivo e processar estes dados para personalizar conteúdos e anúncios, assim como funcionalidades nas redes sociais e análise de tráfego.

  • Armazenar e/ou aceder a informações no seu dispositivo

    Os cookies, identificadores do dispositivo ou outras informações podem ser armazenados ou acedidos no seu dispositivo, para os fins acima indicados.

  • Anúncios e conteúdos personalizados, medição de anúncios e conteúdos, dados sobre o público-alvo e desenvolvimento de produtos

    Os anúncios e os conteúdos podem ser personalizados com base num perfil. Podem ser adicionados dados adicionais para uma maior personalização dos anúncios e dos conteúdos. A eficácia dos anúncios e dos conteúdos pode ser medida. Podem ser obtidas informações sobre o público que visualizou os anúncios e os conteúdos. Estes dados podem ser usados para desenvolver ou melhorar sistemas, softwares ou a experiência do utilizador.

Ao clicar em "Eu concordo”, permitirá o uso de cookies, identificadores do dispositivo e web beacons mencionados ou outras tecnologias semelhantes. As configurações do navegador do seu dispositivo podem ser alteradas.

Para certos fins, podem ser invocados interesses legítimos ao invés de consentimento. Pode ler mais informação sobre este assunto na nossa Política de Privacidade e Cookies.